Weather History for Main Pass 289C AWOS3 (Apache, LA

Change the Weather History Date:

Thursday, April 17, 2014

  Actual Average Record
Temperature  
Mean Temperature 66 °F -  
Max Temperature 68 °F - - ()
Min Temperature 64 °F - - ()
Cooling Degree Days 1    
Growing Degree Days 16 (Base 50)    
Moisture  
Dew Point 60 °F    
Average Humidity 83    
Maximum Humidity 94    
Minimum Humidity 59    
Precipitation  
Precipitation 0.00 in - - ()
Sea Level Pressure  
Sea Level Pressure 30.12 in    
Wind  
Wind Speed 23 mph (East)    
Max Wind Speed 33 mph    
Max Gust Speed 40 mph    
Visibility 9 miles    
Events      
T = Trace of Precipitation, MM = Missing Value Source: NWS Daily Summary

Daily Weather History Graph

Daily Weather History Graph

Search for Another Location

Airport:

Trip Planner

Search our weather history database for the weather conditions in past years. The results will help you decide how hot, cold, wet, or windy it might be!

Date:

Astronomy

Apr. 17, 2014 Rise Set
Actual Time 6:25 AM CDT 7:21 PM CDT
Civil Twilight 6:01 AM CDT 7:45 PM CDT
Nautical Twilight 5:32 AM CDT 8:14 PM CDT
Astronomical Twilight 5:02 AM CDT 8:44 PM CDT
Moon 9:57 PM CDT (4/17) 8:05 AM CDT (4/17)
Length of Visible Light 13h 44m
Length of Day
12h 55m
Waning Gibbous, 93% of the Moon is Illuminated
Apr 17
Waning Gibbous
Apr 22
Last Quarter
Apr 29
New
May 6
First Quarter
May 14
Full

Hourly Weather History & Observations

Time (CDT) Temp. Dew Point Humidity Pressure Visibility Wind Dir Wind Speed Gust Speed Precip Events Conditions
12:15 AM 64.4 °F 50.0 °F 59% 30.13 in 10.0 mi SE 13.8 mph 28.8 mph N/A   Mostly Cloudy
12:35 AM 64.4 °F 51.8 °F 64% 30.13 in 10.0 mi SE 19.6 mph 27.6 mph N/A   Overcast
12:55 AM 64.4 °F 51.8 °F 64% 30.12 in 10.0 mi ESE 25.3 mph - N/A   Mostly Cloudy
1:15 AM 64.4 °F 51.8 °F 64% 30.12 in 10.0 mi SE 21.9 mph 27.6 mph N/A   Mostly Cloudy
1:35 AM 64.4 °F 51.8 °F 64% 30.12 in 10.0 mi SE 19.6 mph - N/A   Overcast
1:55 AM 66.2 °F 53.6 °F 64% 30.11 in 10.0 mi SE 18.4 mph 25.3 mph N/A   Overcast
2:15 AM 66.2 °F 53.6 °F 64% 30.11 in 10.0 mi SE 8.1 mph 26.5 mph N/A   Mostly Cloudy
2:35 AM 66.2 °F 53.6 °F 64% 30.10 in 10.0 mi SE 17.3 mph 23.0 mph N/A   Mostly Cloudy
2:55 AM 66.2 °F 53.6 °F 64% 30.10 in 10.0 mi SE 24.2 mph - N/A   Overcast
3:15 AM 66.2 °F 53.6 °F 64% 30.10 in 10.0 mi SE 20.7 mph - N/A   Mostly Cloudy
3:35 AM 66.2 °F 55.4 °F 68% 30.10 in 10.0 mi ESE 21.9 mph - N/A   Mostly Cloudy
3:55 AM 66.2 °F 55.4 °F 68% 30.10 in 10.0 mi ESE 19.6 mph 26.5 mph N/A   Mostly Cloudy
4:15 AM 66.2 °F 57.2 °F 73% 30.10 in 10.0 mi ESE 23.0 mph - N/A   Mostly Cloudy
4:35 AM 66.2 °F 55.4 °F 68% 30.10 in 10.0 mi ESE 23.0 mph - N/A   Mostly Cloudy
4:55 AM 66.2 °F 57.2 °F 73% 30.09 in 10.0 mi ESE 21.9 mph - N/A   Mostly Cloudy
5:15 AM 66.2 °F 57.2 °F 73% 30.09 in 10.0 mi ESE 21.9 mph - N/A   Mostly Cloudy
5:35 AM 66.2 °F 59.0 °F 78% 30.09 in 10.0 mi ESE 20.7 mph 26.5 mph N/A   Scattered Clouds
5:55 AM 66.2 °F 59.0 °F 78% 30.10 in 10.0 mi East 21.9 mph - N/A   Mostly Cloudy
6:15 AM 66.2 °F 60.8 °F 83% 30.10 in 10.0 mi ESE 16.1 mph - N/A   Mostly Cloudy
6:35 AM 68.0 °F 60.8 °F 78% 30.10 in 10.0 mi ESE 19.6 mph - N/A   Scattered Clouds
6:55 AM 68.0 °F 60.8 °F 78% 30.10 in 10.0 mi ESE 19.6 mph - N/A   Mostly Cloudy
7:15 AM 68.0 °F 62.6 °F 83% 30.10 in 10.0 mi ESE 25.3 mph - N/A   Mostly Cloudy
7:35 AM 68.0 °F 62.6 °F 83% 30.11 in 10.0 mi ESE 24.2 mph - N/A   Overcast
7:55 AM 68.0 °F 62.6 °F 83% 30.13 in 10.0 mi ESE 24.2 mph - N/A   Mostly Cloudy
8:15 AM 68.0 °F 62.6 °F 83% 30.15 in 10.0 mi ESE 24.2 mph - N/A   Overcast
8:35 AM 68.0 °F 62.6 °F 83% 30.15 in 10.0 mi ESE 25.3 mph - N/A   Mostly Cloudy
8:55 AM 68.0 °F 62.6 °F 83% 30.15 in 10.0 mi ESE 25.3 mph - N/A   Mostly Cloudy
9:15 AM 68.0 °F 62.6 °F 83% 30.14 in 10.0 mi ESE 28.8 mph - N/A   Scattered Clouds
9:35 AM 68.0 °F 62.6 °F 83% 30.15 in 10.0 mi ESE 28.8 mph - N/A   Mostly Cloudy
9:55 AM 68.0 °F 62.6 °F 83% 30.15 in 10.0 mi East 29.9 mph - N/A   Mostly Cloudy
10:15 AM 68.0 °F 62.6 °F 83% 30.15 in 10.0 mi ESE 29.9 mph - N/A   Mostly Cloudy
10:35 AM 68.0 °F 62.6 °F 83% 30.15 in 10.0 mi ESE 28.8 mph - N/A   Mostly Cloudy
11:15 AM 66.2 °F 62.6 °F 88% 30.15 in 10.0 mi East 33.4 mph - N/A   Overcast
11:35 AM 66.2 °F 62.6 °F 88% 30.16 in 10.0 mi East 33.4 mph - N/A   Overcast
12:15 PM 66.2 °F 62.6 °F 88% 30.15 in 10.0 mi East 32.2 mph - N/A   Overcast
12:35 PM 66.2 °F 60.8 °F 83% 30.14 in 10.0 mi East 32.2 mph - N/A   Overcast
12:55 PM 66.2 °F 62.6 °F 88% 30.15 in 10.0 mi ESE 29.9 mph - N/A   Overcast
1:15 PM 66.2 °F 62.6 °F 88% 30.14 in 10.0 mi East 32.2 mph - N/A   Overcast
1:35 PM 66.2 °F 60.8 °F 83% 30.14 in 10.0 mi East 27.6 mph 34.5 mph N/A   Overcast
1:55 PM 66.2 °F 60.8 °F 83% 30.13 in 10.0 mi East 31.1 mph - N/A   Overcast
2:15 PM 66.2 °F 62.6 °F 88% 30.12 in 10.0 mi East 28.8 mph - N/A   Overcast
2:35 PM 66.2 °F 62.6 °F 88% 30.12 in 10.0 mi East 29.9 mph - N/A   Overcast
2:55 PM 66.2 °F 62.6 °F 88% 30.12 in 10.0 mi East 27.6 mph - N/A   Overcast
3:15 PM 66.2 °F 62.6 °F 88% 30.11 in 8.0 mi East 26.5 mph - N/A   Overcast
3:35 PM 66.2 °F 62.6 °F 88% 30.11 in 10.0 mi East 26.5 mph - N/A   Overcast
3:55 PM 66.2 °F 62.6 °F 88% 30.11 in 10.0 mi East 25.3 mph - N/A   Overcast
4:15 PM 64.4 °F 60.8 °F 88% 30.13 in 10.0 mi East 24.2 mph - N/A   Overcast
4:35 PM 64.4 °F 60.8 °F 88% 30.12 in 10.0 mi ENE 23.0 mph - N/A   Overcast
4:55 PM 64.4 °F 60.8 °F 88% 30.13 in 10.0 mi East 21.9 mph - N/A   Overcast
5:15 PM 64.4 °F 60.8 °F 88% 30.13 in 0.8 mi ENE 18.4 mph - N/A   Overcast
5:35 PM 64.4 °F 62.6 °F 94% 30.11 in 10.0 mi ENE 24.2 mph - N/A   Overcast
5:55 PM 64.4 °F 62.6 °F 94% 30.12 in 10.0 mi East 23.0 mph - N/A   Overcast
6:15 PM 64.4 °F 62.6 °F 94% 30.11 in 10.0 mi ENE 23.0 mph - N/A   Overcast
6:35 PM 64.4 °F 62.6 °F 94% 30.12 in 10.0 mi ENE 18.4 mph - N/A   Overcast
6:55 PM 64.4 °F 62.6 °F 94% 30.11 in 10.0 mi East 20.7 mph - N/A   Overcast
7:15 PM 66.2 °F 62.6 °F 88% 30.10 in 10.0 mi East 23.0 mph - N/A   Overcast
7:35 PM 66.2 °F 62.6 °F 88% 30.11 in 10.0 mi East 25.3 mph - N/A   Overcast
7:55 PM 64.4 °F 62.6 °F 94% 30.11 in 6.0 mi East 25.3 mph - N/A   Overcast
8:15 PM 64.4 °F 62.6 °F 94% 30.13 in 10.0 mi East 24.2 mph - N/A   Overcast
8:35 PM 64.4 °F 62.6 °F 94% 30.14 in 8.0 mi East 23.0 mph - N/A   Mostly Cloudy
8:55 PM 64.4 °F 62.6 °F 94% 30.15 in 5.0 mi East 24.2 mph - N/A   Overcast
9:15 PM 64.4 °F 62.6 °F 94% 30.14 in 3.0 mi East 25.3 mph - N/A   Overcast
9:35 PM 64.4 °F 62.6 °F 94% 30.15 in 7.0 mi ENE 24.2 mph - N/A   Mostly Cloudy
9:55 PM 64.4 °F 62.6 °F 94% 30.14 in 10.0 mi ENE 24.2 mph - N/A   Overcast
10:15 PM 64.4 °F 62.6 °F 94% 30.13 in 10.0 mi ENE 28.8 mph - N/A   Overcast
10:35 PM 64.4 °F 60.8 °F 88% 30.12 in 10.0 mi ENE 29.9 mph - N/A   Mostly Cloudy
10:55 PM 64.4 °F 62.6 °F 94% 30.11 in 9.0 mi ENE 32.2 mph - N/A   Overcast
11:15 PM 64.4 °F 60.8 °F 88% 30.11 in 6.0 mi ENE 29.9 mph 39.1 mph N/A   Overcast
11:35 PM 64.4 °F 60.8 °F 88% 30.10 in 4.0 mi ENE 29.9 mph 40.3 mph N/A   Overcast
11:55 PM 64.4 °F 60.8 °F 88% 30.09 in 10.0 mi ENE 33.4 mph - N/A   Overcast